GFSSW_925_rhum_258.txt.gz
RH
92 94 96 95 91 91 93 93 95 95 96 94 93 99 97 96 71 40 61 20 26 39 40 43 44 43 49 47 47 52 73 79 59 61 45 40 52 53 71 78 68 69 81 81 76
85 93 93 94 96 92 94 95 95 95 96 94 95 98 100 97 73 83 14 24 46 46 38 46 47 46 53 50 53 63 82 68 58 56 49 45 61 54 68 72 69 72 86 81 82
90 94 89 97 97 96 94 92 93 95 96 93 99 99 100 90 72 22 32 35 68 39 37 43 44 44 47 49 55 61 74 62 51 53 47 51 61 68 80 81 69 59 70 90 91
93 96 98 98 97 97 95 95 95 94 95 96 92 99 91 74 14 36 36 60 64 38 47 47 49 52 56 60 53 62 59 54 48 44 45 55 59 76 84 62 50 58 67 86 93
94 94 93 94 98 99 99 97 95 95 95 94 89 98 82 68 53 24 50 68 57 40 44 48 50 53 58 57 55 61 55 50 48 47 50 47 66 67 64 66 63 68 78 83 89
86 89 91 92 94 95 96 97 96 95 96 90 97 95 97 59 17 24 68 67 46 44 45 46 51 50 56 63 62 56 57 60 58 57 54 54 55 58 49 51 63 75 87 82 86
88 90 91 93 93 93 90 88 88 90 95 94 95 91 89 66 25 40 66 65 45 41 43 39 43 55 56 61 54 54 63 59 55 51 52 56 55 74 47 41 57 75 81 80 84
88 90 91 93 93 90 85 62 60 70 100 95 92 85 92 41 40 30 61 58 41 39 39 36 40 47 53 50 54 64 62 66 38 49 42 43 57 41 39 38 46 63 75 71 69
88 90 91 92 91 85 62 48 56 82 91 94 90 86 84 40 55 30 38 48 40 42 42 40 38 49 52 64 66 67 68 74 62 46 41 47 55 42 31 40 40 39 45 61 66
87 89 90 92 91 72 37 51 84 90 94 87 88 82 66 36 42 39 44 42 44 50 49 48 66 71 78 76 76 59 84 78 71 50 53 60 60 48 40 46 43 38 39 40 68
85 87 89 90 86 45 34 57 62 56 80 76 68 59 45 42 45 40 44 45 52 57 76 64 78 88 69 75 56 62 72 76 70 61 64 66 65 52 49 48 45 45 44 43 41
81 84 83 80 56 48 56 68 69 74 95 71 70 72 58 58 55 53 44 54 64 79 76 81 91 68 64 70 74 75 81 83 70 59 61 65 62 49 45 48 45 43 44 44 43
77 77 74 71 40 41 53 84 78 78 98 79 74 66 66 65 66 61 54 58 68 84 84 88 71 68 70 76 80 82 85 81 76 66 63 70 68 49 43 42 44 47 45 45 43
74 74 71 63 42 55 60 73 67 70 96 64 58 59 64 66 76 51 49 56 70 80 86 85 68 70 81 80 74 82 75 72 78 76 90 61 91 69 49 52 44 44 49 49 47
72 71 68 62 68 70 42 45 75 61 47 29 50 47 55 55 53 60 54 58 82 79 80 78 82 88 81 73 73 80 67 77 72 78 78 76 91 73 48 36 34 41 46 44 48
72 73 64 47 62 52 61 46 75 75 67 40 59 68 63 57 57 74 56 57 63 75 75 72 58 72 76 69 67 60 64 67 77 77 93 77 82 73 43 35 32 40 50 55 42
29 40 42 56 57 52 58 73 86 88 35 43 73 75 68 68 64 85 78 82 91 84 85 74 82 70 57 64 67 63 75 93 92 99 88 78 92 79 50 38 34 39 52 58 70
70 31 40 43 52 59 66 87 95 40 62 69 64 66 78 68 70 88 91 84 76 76 89 87 85 75 71 65 71 86 78 91 90 97 92 79 94 69 46 42 42 48 52 57 61
41 22 34 41 42 77 86 95 82 90 87 92 72 77 84 72 74 93 96 94 78 84 86 99 93 64 71 64 56 84 92 63 85 94 96 92 72 54 51 51 52 54 55 59 62
54 55 36 33 51 76 93 65 86 74 65 82 86 81 91 90 84 94 90 89 89 77 75 76 88 66 66 60 66 73 69 90 92 99 98 86 76 74 55 57 56 58 62 66 66
54 66 30 32 73 96 94 92 91 69 61 91 91 90 89 90 87 93 95 91 88 82 86 93 90 76 77 84 88 75 83 77 74 83 88 89 79 63 73 53 61 69 74 75 71
75 49 34 34 70 88 94 80 61 71 53 77 88 90 86 84 77 88 94 94 91 95 94 96 100 95 82 68 70 66 69 81 90 94 86 86 82 83 80 77 80 79 74 76 75
97 95 42 41 90 82 68 62 53 51 60 53 64 66 61 76 73 83 69 61 45 69 96 95 95 97 97 79 72 84 75 68 75 81 95 88 86 76 77 76 72 74 72 69 67
86 88 76 74 76 78 94 74 57 49 50 50 48 51 49 48 68 76 61 59 48 41 70 72 94 96 94 95 97 97 94 94 72 92 86 84 79 88 84 88 79 74 69 68 69
84 75 87 94 69 91 89 76 64 70 60 46 50 64 74 64 50 59 51 50 40 49 64 78 94 86 74 68 83 95 92 89 97 93 90 74 92 94 90 87 86 75 69 66 67
89 88 86 94 90 90 78 72 69 77 74 66 64 53 83 72 68 74 81 70 64 55 65 74 89 73 55 49 55 91 91 90 89 91 94 94 93 90 88 73 81 87 86 84 84
78 85 98 78 85 87 66 74 68 67 60 67 58 63 54 54 68 70 69 65 64 74 68 73 90 96 90 68 50 72 92 90 93 92 92 94 95 93 91 89 91 89 87 91 89

GFSSW_925_rhum_261.txt.gz
RH
84 88 91 94 95 97 97 89 91 93 91 94 92 98 93 99 86 55 62 16 19 36 44 47 47 47 50 50 50 52 60 58 49 59 40 40 50 46 68 72 67 68 74 74 77
88 89 93 93 95 97 91 91 94 95 94 93 94 93 100 100 82 91 12 17 38 56 40 45 49 50 55 53 55 59 67 54 50 51 47 46 57 50 59 60 65 70 74 80 79
91 92 93 93 95 97 99 94 92 94 95 95 96 89 99 95 74 21 35 24 70 62 33 42 44 44 50 54 57 63 66 61 51 52 47 48 56 56 72 64 62 56 58 81 86
84 86 89 90 92 92 90 92 94 94 94 95 91 90 99 85 14 36 36 65 75 44 45 48 50 54 56 60 55 63 59 54 48 49 54 56 53 66 75 47 50 56 55 75 84
87 88 90 91 92 92 93 93 93 94 95 95 91 95 88 73 47 24 47 76 70 45 46 54 54 56 60 61 58 63 57 52 52 53 50 46 55 55 58 52 56 56 62 74 79
87 88 90 92 92 93 92 90 88 88 90 95 92 90 95 69 18 20 66 74 60 45 48 50 51 52 55 60 63 58 58 59 58 56 57 56 56 60 47 46 51 54 56 64 77
86 88 90 91 92 93 91 89 95 96 92 96 94 87 85 70 26 35 62 73 58 43 50 45 46 55 61 65 57 56 63 58 54 57 58 57 61 65 43 44 46 48 57 64 72
85 87 88 90 92 92 82 63 59 95 99 99 90 86 92 45 46 35 72 73 60 42 40 38 43 53 54 52 53 62 64 60 37 55 46 47 52 41 38 45 43 41 51 60 63
84 86 87 89 87 83 30 29 57 88 93 94 87 85 88 41 57 32 47 59 44 43 43 40 40 53 54 62 61 65 58 74 55 49 44 51 56 42 38 36 38 38 36 38 49
82 82 82 80 78 76 27 38 85 92 90 83 83 84 64 36 45 44 40 50 47 54 51 50 65 70 78 71 66 64 80 76 64 51 56 61 60 48 43 42 41 38 37 35 32
76 77 76 74 68 69 44 55 70 63 76 79 68 66 48 38 45 44 53 48 54 59 77 65 78 85 67 71 53 52 66 69 67 60 63 62 54 51 47 46 42 38 37 38 35
75 73 72 68 62 57 55 77 82 89 91 70 74 67 54 62 57 55 50 55 64 78 78 80 89 68 64 73 70 73 75 75 67 64 67 64 64 51 45 46 43 41 41 39 39
75 76 75 67 56 26 73 90 56 87 97 82 79 73 70 66 70 63 57 62 67 83 82 82 71 69 66 79 80 81 78 80 66 67 67 70 66 54 43 47 44 43 44 44 43
72 76 74 61 35 45 65 49 51 80 98 62 58 60 68 71 81 51 52 57 71 74 87 79 65 78 84 80 71 78 72 66 72 81 82 63 76 64 43 50 42 37 39 39 45
70 72 68 49 55 56 56 57 57 66 40 26 54 48 63 60 58 60 57 57 79 82 81 74 89 81 83 81 71 77 70 77 79 87 79 77 84 64 56 38 33 37 47 51 42
72 67 45 50 48 51 52 49 75 64 52 38 64 76 66 58 56 75 59 59 63 75 78 68 64 78 74 68 66 67 68 72 75 77 94 75 66 59 46 36 35 40 54 65 55
74 40 35 46 54 43 66 73 88 79 37 74 81 70 79 68 66 85 75 84 86 88 87 82 86 68 65 74 71 69 80 97 97 95 84 80 85 64 54 42 42 45 59 64 70
58 29 33 39 35 47 68 86 94 50 81 78 76 76 84 81 70 85 86 88 73 78 87 88 89 83 72 66 79 79 74 87 86 94 88 79 92 61 49 47 48 57 63 67 70
42 27 30 34 49 75 78 97 94 91 76 86 70 81 75 73 81 98 89 93 97 96 97 96 86 66 73 64 57 87 93 64 86 94 91 84 69 51 58 57 59 66 72 74 70
44 45 33 33 77 76 90 81 91 79 67 76 85 85 90 83 80 87 97 94 93 95 96 97 96 67 69 61 64 75 68 89 90 98 100 80 75 70 72 67 76 81 80 77 73
50 50 32 29 32 86 88 79 82 62 66 91 89 88 88 82 74 82 95 93 88 89 95 93 99 79 80 86 86 82 86 78 73 79 83 83 78 85 95 74 87 84 80 78 77
69 46 38 32 69 87 92 82 57 70 55 65 76 69 85 77 73 85 90 93 46 81 94 96 95 96 88 68 70 67 74 77 87 93 75 77 82 83 80 77 76 76 70 68 68
94 91 42 36 84 84 73 67 60 57 58 57 60 65 63 72 76 77 67 57 51 48 83 87 95 91 96 86 80 88 77 72 75 79 96 84 90 75 76 78 73 72 69 68 68
79 80 75 72 74 79 96 78 64 50 54 53 53 44 52 50 50 75 52 45 46 49 55 65 91 95 93 94 90 92 92 98 98 85 82 86 96 88 86 88 83 82 74 72 71
83 78 90 93 74 93 92 83 74 72 72 55 58 57 73 67 56 61 51 50 43 48 68 68 91 71 59 61 92 95 94 94 95 95 97 92 95 88 89 91 89 77 74 75 78
91 96 90 95 90 91 79 72 71 68 73 68 73 56 80 76 66 66 80 71 66 54 62 63 78 54 52 33 59 82 85 88 90 92 93 94 92 92 88 86 86 87 84 79 79
80 86 98 77 88 90 67 71 78 71 70 69 79 69 59 54 65 62 66 65 64 74 74 81 89 95 87 51 49 64 92 87 89 90 94 94 95 93 93 91 90 91 89 91 86

GFSSW_925_rhum_264.txt.gz
RH
92 94 94 96 93 96 97 96 92 92 92 92 93 97 89 100 97 73 45 21 20 29 47 48 46 46 43 39 38 36 27 17 20 27 20 30 35 37 38 36 42 44 43 40 64
89 90 88 88 90 89 89 91 93 94 94 93 90 89 91 99 85 64 28 15 18 50 43 38 37 40 36 38 40 33 30 20 25 25 25 32 37 33 33 38 42 43 44 59 65
84 85 86 87 89 90 91 92 94 95 95 94 93 90 92 95 63 16 35 29 59 76 37 37 36 34 38 39 39 40 31 31 28 31 34 33 38 34 32 33 26 28 34 42 58
85 86 88 88 88 90 90 90 92 90 91 95 95 92 96 87 17 32 30 29 72 66 40 41 37 39 39 42 35 43 36 35 33 37 40 37 34 36 36 30 25 28 27 32 53
86 87 88 90 90 91 92 92 90 90 92 92 94 90 85 56 33 19 48 77 79 49 36 36 39 36 40 37 40 45 34 36 34 37 38 36 39 37 34 28 27 30 32 37 40
85 86 88 89 91 92 91 89 85 91 95 95 93 88 83 58 21 20 60 80 64 44 40 38 32 33 34 36 40 35 40 38 38 38 37 42 36 37 29 26 30 31 34 32 36
83 85 87 88 88 85 84 80 80 84 84 98 94 89 75 54 34 26 60 77 63 42 39 38 39 36 34 44 42 46 50 38 38 35 38 38 41 39 29 26 29 30 28 29 28
81 81 81 81 80 78 75 43 47 78 79 98 90 87 77 54 54 37 54 72 63 49 41 41 44 39 41 43 42 46 46 37 28 35 35 37 22 24 26 30 31 27 23 24 26
77 77 76 75 74 70 68 17 40 94 92 90 88 78 68 46 55 45 55 61 58 46 45 41 43 43 48 49 43 40 26 37 29 37 38 42 30 26 28 28 28 25 22 22 22
76 76 77 76 72 67 43 35 72 93 87 79 79 87 51 36 45 49 54 58 50 44 47 43 42 48 45 48 36 27 40 37 27 33 40 38 40 28 26 27 28 24 22 21 21
74 73 74 72 70 56 50 68 46 54 65 60 55 59 40 37 46 46 49 52 44 45 55 51 55 56 46 36 28 31 32 30 33 37 44 36 33 26 21 22 30 26 22 20 20
73 74 71 60 68 31 78 65 66 76 92 58 59 54 46 47 54 46 51 50 55 60 46 65 63 36 36 37 47 41 36 31 30 36 42 33 32 28 24 23 22 21 22 21 22
77 73 64 54 37 53 83 62 75 80 90 51 57 62 57 56 54 43 50 42 51 55 61 52 42 42 51 55 56 48 43 36 40 45 43 46 31 23 25 29 30 28 26 26 28
76 72 66 34 40 57 58 55 62 84 72 32 49 50 59 62 65 45 48 43 53 51 55 53 37 60 58 52 48 47 38 44 48 53 45 43 30 22 19 22 24 22 23 28 28
74 72 63 43 49 44 48 60 63 78 49 35 55 48 53 59 53 59 48 50 49 51 54 48 64 57 57 52 49 46 46 50 51 52 55 45 59 25 30 29 22 26 37 39 36
72 65 32 50 44 42 42 60 80 54 46 47 50 50 43 49 52 63 54 51 46 51 51 45 54 54 46 40 51 51 58 60 61 55 82 40 46 27 24 27 29 34 47 52 50
64 35 29 36 45 48 54 61 65 41 35 62 63 48 54 65 60 63 63 69 72 89 70 52 56 55 58 64 58 58 60 78 88 89 63 59 58 33 33 32 32 45 56 60 59
61 26 27 41 72 69 71 49 48 44 62 50 53 45 59 78 63 65 80 70 70 99 88 82 73 56 52 50 64 71 63 72 71 75 60 67 76 44 42 44 49 53 54 60 64
38 27 34 30 45 71 47 56 80 71 61 62 47 47 50 51 53 61 92 90 91 92 93 90 71 54 55 45 44 75 90 45 71 70 70 60 48 44 48 54 56 58 58 61 63
58 45 30 30 28 54 46 67 54 53 55 56 63 54 62 55 53 47 82 84 90 90 93 90 90 55 58 57 56 63 50 91 81 91 81 57 50 57 75 72 66 66 64 61 60
54 24 34 26 30 44 48 55 54 43 47 60 70 69 55 56 47 52 82 89 58 57 81 90 92 81 68 66 66 94 97 83 64 55 61 62 62 86 88 75 70 65 62 61 60
55 23 38 30 43 50 54 64 55 45 38 46 45 66 53 51 45 50 71 62 50 37 71 92 92 86 83 63 49 51 57 56 70 79 61 54 88 78 75 67 63 63 59 58 58
50 46 43 38 49 50 49 52 48 45 51 46 46 43 41 36 54 50 46 31 28 51 76 65 88 79 79 94 80 91 94 92 63 58 89 69 90 84 81 69 66 66 63 62 60
42 43 40 44 51 64 68 49 50 41 53 46 39 40 40 40 35 40 38 26 31 41 41 39 62 84 85 91 91 88 90 89 89 94 62 75 95 86 85 85 73 69 63 62 62
55 60 69 52 44 66 73 66 54 56 51 44 43 54 56 54 47 39 32 32 27 42 37 41 48 50 45 32 38 77 92 91 93 92 93 92 88 85 87 88 85 71 64 63 65
60 64 62 64 70 65 61 54 61 58 60 57 64 56 70 76 61 65 52 43 37 35 41 43 55 49 40 36 36 64 76 89 87 90 91 91 91 90 87 88 83 86 75 69 68
83 84 81 53 58 66 50 62 66 59 49 56 60 66 63 53 44 48 47 45 44 59 57 60 63 62 54 45 36 86 89 82 83 85 87 88 92 90 91 89 88 88 87 90 84

GFSSW_925_rhum_267.txt.gz
RH
90 86 86 86 87 88 89 91 91 92 92 92 93 93 90 93 88 64 44 32 27 34 48 41 34 34 31 30 30 25 27 16 13 14 15 20 25 27 22 22 24 26 25 28 48
84 85 85 87 87 89 89 90 91 91 92 92 91 93 92 94 76 50 32 35 33 41 47 34 30 31 31 30 32 30 22 16 16 16 18 22 27 29 33 30 28 30 29 31 44
85 86 86 87 88 89 90 91 91 91 91 91 92 93 93 87 47 17 24 38 48 56 33 28 24 29 30 28 32 29 26 18 18 19 23 24 28 27 29 27 21 26 29 31 39
85 86 87 88 89 90 91 91 92 91 90 94 92 91 88 73 26 23 31 30 57 52 32 27 27 33 32 34 26 33 26 22 23 25 28 29 24 28 29 27 20 23 21 22 36
84 86 87 88 88 88 88 87 88 85 86 94 96 92 76 47 35 20 34 49 60 55 31 30 32 30 31 26 26 30 28 21 23 24 28 26 29 28 28 22 21 22 23 26 27
81 82 82 82 81 81 80 79 80 79 85 88 92 92 71 65 23 29 43 65 56 46 31 29 28 25 28 25 29 24 28 26 24 25 26 30 28 26 23 20 22 23 23 23 27
79 80 80 80 79 77 75 74 73 74 81 96 94 85 71 54 38 36 39 59 57 43 30 27 25 26 26 29 25 31 37 31 28 29 30 27 34 32 23 20 20 21 22 22 22
77 77 76 76 75 74 72 69 70 76 85 93 93 80 75 47 48 47 36 51 56 48 34 31 31 31 28 29 35 41 37 39 17 21 25 31 26 12 16 19 22 22 21 18 19
74 75 74 72 71 72 54 45 40 76 93 84 83 71 54 46 43 37 30 42 55 51 41 36 36 37 38 47 40 32 32 27 20 24 23 35 24 13 21 23 22 20 18 17 16
75 77 73 66 68 56 40 56 63 88 79 70 68 80 46 32 35 39 33 37 47 48 45 40 41 44 43 50 51 30 26 25 18 20 27 33 33 20 19 21 22 20 18 17 17
76 75 71 63 40 49 64 37 35 49 46 50 45 55 43 33 35 39 38 45 43 46 56 45 50 52 42 39 35 22 26 20 19 17 29 29 27 22 20 20 20 17 14 14 13
75 75 68 57 48 60 48 49 59 71 84 46 42 40 36 38 47 34 40 47 48 54 42 44 58 36 32 31 34 32 31 28 18 16 28 27 27 20 17 17 17 16 16 16 14
74 72 64 20 33 34 57 44 60 63 82 34 36 47 47 49 51 39 43 42 44 50 44 51 42 38 38 36 39 39 37 32 26 19 33 37 34 25 19 18 16 14 14 16 17
72 67 54 21 29 35 26 38 59 72 67 30 45 49 37 50 58 38 32 39 40 47 42 44 35 38 41 40 36 53 35 32 31 33 46 27 37 19 15 17 22 20 19 18 22
73 66 25 42 48 29 39 48 60 83 66 43 47 39 25 44 50 51 43 44 52 41 37 46 49 47 48 37 38 47 32 31 36 41 41 36 52 28 17 17 16 17 29 35 36
69 44 27 33 28 44 62 62 73 65 60 53 44 38 32 34 45 49 52 46 45 49 39 34 31 39 35 34 34 32 45 42 42 47 79 42 39 34 22 20 20 30 43 48 45
45 25 38 32 37 54 71 49 63 47 32 50 47 37 30 54 42 51 58 84 66 87 69 46 45 39 42 45 37 44 60 90 92 94 66 49 42 32 30 36 32 44 53 55 51
28 29 28 29 38 50 63 34 43 44 47 38 39 35 31 49 42 46 67 90 93 89 90 74 72 45 44 47 61 60 66 71 73 70 54 52 61 39 40 44 45 48 54 58 58
36 34 26 32 33 51 46 49 52 52 44 47 39 37 32 31 34 37 59 89 91 91 90 90 76 38 36 46 41 64 78 47 76 59 85 66 46 43 46 51 51 53 55 61 60
44 30 24 35 32 22 25 44 35 38 37 35 42 45 47 39 39 37 39 76 77 53 77 91 84 67 44 47 48 61 56 82 94 86 81 51 44 71 68 63 57 58 58 58 58
36 23 31 37 33 31 35 36 37 31 33 38 42 45 54 51 36 35 64 75 35 41 68 83 91 67 89 77 70 99 99 99 76 48 70 54 72 80 92 70 63 60 58 58 58
36 18 36 39 25 27 41 51 43 37 30 36 34 37 37 34 31 32 69 50 31 38 64 89 87 79 65 60 88 58 69 69 79 65 55 46 94 84 74 63 59 61 59 56 56
31 28 34 30 31 30 32 37 34 37 38 42 42 34 32 34 39 30 30 22 22 32 53 41 81 77 47 82 82 93 92 89 84 79 80 75 92 90 90 85 67 64 60 57 57
34 31 24 26 36 44 47 36 38 29 41 44 40 30 36 33 31 38 33 24 25 34 35 28 40 73 80 79 82 89 85 83 88 94 80 80 90 83 83 85 82 68 59 57 58
36 35 48 40 31 40 41 43 44 41 36 34 39 45 56 54 39 33 37 33 26 34 27 35 56 34 34 30 30 77 90 88 90 93 93 92 90 87 88 89 89 85 67 62 62
53 52 40 44 41 43 41 38 42 42 44 45 46 43 44 67 66 72 54 48 42 28 36 39 58 50 46 25 36 88 82 89 88 89 91 92 91 92 87 73 79 84 83 74 71
56 60 72 46 36 37 35 42 44 42 41 37 43 47 47 51 64 46 41 39 37 46 50 56 63 53 47 28 32 82 91 88 89 90 92 87 91 83 89 90 86 86 84 89 84

GFSSW_925_rhum_273.txt.gz
RH
85 86 88 89 89 90 91 91 92 92 92 92 92 92 93 94 87 71 64 23 28 29 36 42 51 46 39 39 36 31 52 49 33 25 24 23 26 27 29 26 26 24 44 56 52
85 86 86 86 87 88 88 89 89 88 90 91 91 92 94 96 77 85 26 33 49 48 50 58 57 47 47 43 45 48 61 49 29 20 25 27 26 34 31 32 31 29 60 51 46
84 84 84 84 84 84 84 85 86 85 86 87 88 90 94 89 78 41 26 25 44 37 40 42 46 40 50 44 47 49 59 35 26 21 24 27 30 31 38 42 39 34 38 61 50
82 82 81 82 80 80 79 81 80 82 83 83 84 88 92 83 38 38 36 25 36 40 43 42 44 45 54 55 44 48 43 37 34 28 28 29 28 32 37 37 29 30 31 42 52
81 81 81 80 76 74 74 74 75 77 80 81 82 87 80 80 77 26 33 48 52 47 51 50 49 43 50 49 45 48 42 36 32 31 32 30 34 36 35 35 33 32 31 31 50
80 79 79 74 72 72 72 74 72 73 78 79 82 96 88 88 28 34 40 41 50 54 55 52 43 35 41 39 44 37 38 37 33 31 30 36 38 36 34 29 30 32 34 34 39
78 78 76 73 69 65 67 65 60 82 89 83 86 94 83 71 28 35 36 40 38 50 58 49 45 35 36 43 37 36 42 39 37 32 36 31 43 42 30 29 32 30 29 30 36
77 75 72 70 64 62 52 38 40 63 58 82 87 81 86 45 45 40 38 40 39 38 46 51 38 41 40 38 40 42 46 52 38 35 36 37 47 38 33 33 32 29 35 32 32
75 73 70 66 36 59 32 41 48 70 73 78 74 65 83 46 40 33 34 42 38 32 48 50 37 46 42 53 63 54 72 56 46 33 34 41 48 33 29 30 33 32 33 32 32
72 71 68 63 28 48 25 51 60 73 52 75 63 63 58 39 32 34 30 32 36 43 61 51 50 61 64 68 73 68 73 58 48 30 37 44 46 37 31 30 31 32 32 32 31
71 68 61 63 26 50 16 30 61 53 58 60 57 51 40 38 36 42 35 32 44 45 90 68 74 80 65 57 50 48 45 52 39 34 34 41 41 38 34 35 35 34 32 31 29
70 61 30 49 32 38 32 51 57 62 84 58 54 52 44 26 35 45 40 44 59 72 68 77 89 63 52 53 58 53 56 58 50 39 31 35 40 36 33 29 29 30 34 31 27
70 38 23 20 24 28 36 51 60 58 87 56 41 32 30 24 33 42 48 52 52 61 75 84 61 57 57 56 56 57 58 57 55 40 35 33 41 38 30 31 29 28 26 31 31
72 41 32 18 21 29 38 38 60 64 91 57 43 37 28 27 40 17 40 55 59 61 58 67 52 61 65 62 51 60 46 48 50 52 68 34 63 41 34 33 35 48 67 65 63
68 16 20 26 26 32 34 54 66 70 71 39 38 25 24 30 34 36 52 65 87 98 69 65 58 62 71 65 52 55 43 47 50 57 55 54 68 57 36 44 85 85 82 81 82
62 17 24 15 17 20 31 57 67 86 92 53 39 33 33 31 38 31 43 51 61 81 81 90 56 54 72 67 49 45 51 51 50 62 91 58 60 65 48 82 92 85 81 77 76
18 18 26 18 29 29 31 65 74 86 35 50 45 36 37 38 42 34 51 82 93 93 71 61 64 55 52 70 63 51 70 96 97 97 78 56 66 58 87 83 82 83 78 72 72
18 27 26 18 21 28 36 52 50 47 50 39 39 38 46 40 43 39 59 94 77 91 97 95 80 68 43 84 86 76 87 96 85 90 70 61 79 95 80 72 69 68 68 66 69
31 27 33 22 22 27 48 71 50 58 40 46 40 47 44 38 45 46 85 90 87 87 88 94 72 40 67 67 90 83 97 66 83 83 91 82 96 77 70 74 71 70 68 68 66
49 48 33 11 19 32 48 31 36 33 35 39 50 43 59 48 46 48 61 85 50 51 84 88 94 48 46 72 67 95 70 94 97 98 98 92 93 97 94 85 77 79 77 72 66
48 53 31 22 26 60 62 49 41 37 41 44 49 53 52 53 44 48 61 71 47 37 73 91 96 59 53 94 94 89 93 95 95 86 82 94 96 96 97 95 88 80 75 73 71
70 52 31 21 49 65 78 66 46 47 40 39 43 49 56 48 52 50 57 60 38 38 68 71 88 100 58 95 91 92 94 93 96 92 75 81 96 94 93 94 91 90 78 76 76
95 60 32 27 52 53 45 44 42 38 36 41 54 45 44 52 69 76 52 41 40 51 62 59 81 92 73 91 82 88 92 92 88 96 94 93 96 91 90 88 90 91 84 79 78
88 61 58 52 46 46 57 50 50 38 39 38 42 42 49 55 52 67 54 50 49 43 34 42 81 70 92 77 84 93 91 92 91 95 94 96 93 86 89 89 88 89 88 89 89
67 61 57 77 64 74 66 54 57 58 40 40 46 54 68 81 74 60 56 62 49 41 39 57 84 79 60 50 84 88 94 93 93 95 94 96 95 93 92 92 92 90 87 85 87
78 71 75 87 69 63 52 54 59 52 47 54 67 60 69 81 76 90 90 72 71 52 53 50 77 80 71 69 85 86 82 94 93 95 94 94 96 95 94 87 87 90 88 86 87
70 73 95 78 71 59 55 60 56 52 46 46 51 76 76 77 72 68 69 72 76 78 58 73 94 93 93 58 72 83 96 91 94 94 95 95 96 94 95 94 94 93 92 94 91